Location: Oklahoma City
(35.4680°N, 97.5160°W)
Time: 17:25:56
(UTC-05:00)

ISS - All Passes

Search period start: 01 July 2016 00:00
Search period end: 11 July 2016 00:00
Orbit: 402 x 404 km, 51.6° (Epoch: 02 July)

Date Brightness Start Highest point End Pass type
(mag) Time Alt. Az. Time Alt. Az. Time Alt. Az.
01 Jul - 08:04:40 10° SW 08:07:56 81° SE 08:11:11 10° NE daylight
01 Jul - 09:43:02 10° WNW 09:44:44 13° NNW 09:46:27 10° N daylight
01 Jul - 14:35:06 10° NNW 14:37:52 25° NNE 14:40:39 10° E daylight
01 Jul - 16:11:28 10° WNW 16:14:17 27° SW 16:17:07 10° SSE daylight
02 Jul - 07:12:14 10° SSW 07:15:14 35° SE 07:18:15 10° ENE daylight
02 Jul - 08:49:10 10° W 08:51:44 21° NNW 08:54:19 10° NNE daylight
02 Jul - 13:42:52 10° N 13:44:55 15° NNE 13:46:58 10° ENE daylight
02 Jul - 15:18:24 10° NW 15:21:38 62° SW 15:24:50 10° SE daylight
03 Jul - 06:20:29 10° S 06:22:38 17° SE 06:24:47 10° E daylight
03 Jul - 07:55:46 10° WSW 07:58:50 37° NW 08:01:54 10° NNE daylight
03 Jul - 12:51:25 10° NNE 12:51:51 10° NNE 12:52:17 10° NNE daylight
03 Jul - 14:25:38 10° NW 14:28:52 58° NE 14:32:05 10° ESE daylight
03 Jul - 16:04:16 10° WSW 16:04:54 10° SW 16:05:32 10° SW daylight
04 Jul - 07:02:46 10° SW 07:06:00 80° NW 07:09:16 10° NE daylight
04 Jul - 08:41:36 10° NW 08:42:54 12° NNW 08:44:13 10° N daylight
04 Jul - 13:33:05 10° NNW 13:36:00 29° NE 13:38:55 10° E daylight
04 Jul - 15:09:43 10° WNW 15:12:19 22° SW 15:14:54 10° S daylight
05 Jul - 06:10:09 10° SSW 06:13:15 44° SE 06:16:23 10° ENE daylight
05 Jul - 07:47:29 10° WNW 07:49:51 18° NNW 07:52:13 10° NNE daylight
05 Jul - 12:40:44 10° NNW 12:43:02 18° NNE 12:45:19 10° ENE daylight
05 Jul - 14:16:29 10° WNW 14:19:39 48° SW 14:22:47 10° SSE daylight
06 Jul - 05:18:06 10° S 05:20:35 20° SE 05:23:05 10° E visible
06 Jul - 06:53:56 10° W 06:56:53 31° NW 06:59:50 10° NNE daylight
06 Jul - 11:48:47 10° N 11:49:57 11° NNE 11:51:07 10° NE daylight
06 Jul - 13:23:36 10° NW 13:26:52 74° NE 13:30:07 10° SE daylight
07 Jul - 06:00:46 10° WSW 06:03:59 63° NW 06:07:13 10° NE daylight
07 Jul - 07:40:14 10° NW 07:40:58 11° NNW 07:41:42 10° N daylight
07 Jul - 12:30:57 10° NNW 12:34:00 35° NE 12:37:01 10° ESE daylight
07 Jul - 14:07:57 10° W 14:10:14 18° SW 14:12:30 10° S daylight
08 Jul - 05:07:59 10° SW 05:11:10 57° SE 05:14:23 10° NE visible
08 Jul - 06:45:44 10° WNW 06:47:51 16° NNW 06:49:58 10° NNE daylight
08 Jul - 11:38:30 10° NNW 11:41:01 20° NNE 11:43:31 10° E daylight
08 Jul - 13:14:29 10° WNW 13:17:33 37° SW 13:20:35 10° SSE daylight
09 Jul - 04:15:42 10° S 04:18:26 25° SE 04:21:11 10° ENE visible
09 Jul - 05:52:00 10° W 05:54:48 26° NW 05:57:38 10° NNE visible
09 Jul - 10:46:20 10° N 10:47:56 13° NNE 10:49:30 10° NE daylight
09 Jul - 12:21:29 10° NW 12:24:46 88° SSW 12:28:01 10° SE daylight
10 Jul - 03:24:25 10° SSE 03:25:47 12° SE 03:27:08 10° ESE visible
10 Jul - 04:58:41 10° WSW 05:01:51 50° NW 05:05:02 10° NE visible
10 Jul - 11:28:44 10° NW 11:31:52 42° NE 11:34:59 10° ESE daylight
10 Jul - 13:06:09 10° W 13:08:01 14° SW 13:09:52 10° SSW daylight
